Location: Hermaringen
(48.5952°N, 10.2585°E)
Time: 10:21:19
(UTC+00:00)

Courier 1B - Pass Details

Date: 20 February 2026
Orbit: 962 x 1208 km, 28.3° (Epoch: 7 March)

Event Time Altitude Azimuth Distance (km) Brightness Sun altitude
Rises 20:53:04 0° 240° (WSW) 3,954 10.9 -39.6°
Enters shadow 20:56:07 - 225° (SW) 3,262 10.3 -40.0°
Reaches altitude 10° 20:57:23 10° 217° (SW) 3,044 - -40.2°
Maximum altitude 21:01:00 14° 188° (S) 2,775 - -40.7°
Drops below altitude 10° 21:04:41 10° 159° (SSE) 3,107 - -41.2°
Sets 21:09:12 0° 136° (SE) 4,093 - -41.7°
